Weather History for Wrangell, AK

Change the Weather History Date:

Wednesday, November 28, 2012

  Actual Average Record
Temperature  
Mean Temperature 36 °F -  
Max Temperature 39 °F 40 °F 54 °F (1969)
Min Temperature 33 °F 30 °F 3 °F (1985)
Degree Days  
Heating Degree Days 29    
Moisture  
Dew Point 25 °F    
Average Humidity 64    
Maximum Humidity 75    
Minimum Humidity 52    
Precipitation  
Precipitation 0.00 in - - ()
Sea Level Pressure  
Sea Level Pressure 29.64 in    
Wind  
Wind Speed 8 mph (East)    
Max Wind Speed 20 mph    
Max Gust Speed 26 mph    
Visibility 10 miles    
Events      
Averages and records for this station are not official NWS values.
T = Trace of Precipitation, MM = Missing Value Source: NWS Daily Summary

Daily Weather History Graph

Daily Weather History Graph

Search for Another Location

Airport:

Trip Planner

Search our weather history database for the weather conditions in past years. The results will help you decide how hot, cold, wet, or windy it might be!

Date:

Astronomy

Nov. 28, 2012 Rise Set
Actual Time 7:55 AM AKST 3:19 PM AKST
Civil Twilight 7:09 AM AKST 4:05 PM AKST
Nautical Twilight 6:21 AM AKST 4:53 PM AKST
Astronomical Twilight 5:35 AM AKST 5:39 PM AKST
Moon 3:38 PM AKST (11/28) 7:59 AM AKST (11/28)
Length of Visible Light 8h 56m
Length of Day
7h 24m
Full, 100% of the Moon is Illuminated
Nov 28
Full
Dec 6
Last Quarter
Dec 12
New
Dec 19
First Quarter
Dec 28
Full

Hourly Weather History & Observations

Time (AKST) Temp. Windchill Dew Point Humidity Pressure Visibility Wind Dir Wind Speed Gust Speed Precip Events Conditions
12:16 AM 35.6 °F 30.7 °F 26.6 °F 70% 29.85 in 10.0 mi SW 5.8 mph - N/A   Overcast
12:36 AM 35.6 °F - 26.6 °F 70% 29.84 in 10.0 mi Calm Calm - N/A   Overcast
12:56 AM 35.6 °F 30.7 °F 26.6 °F 70% 29.84 in 10.0 mi WSW 5.8 mph - N/A   Overcast
1:16 AM 35.6 °F 32.8 °F 26.6 °F 70% 29.83 in 10.0 mi WSW 3.5 mph - N/A   Overcast
1:36 AM 35.6 °F 32.8 °F 26.6 °F 70% 29.83 in 10.0 mi WSW 3.5 mph - N/A   Overcast
1:56 AM 35.6 °F 31.7 °F 26.6 °F 70% 29.83 in 10.0 mi NNW 4.6 mph - N/A   Overcast
2:16 AM 35.6 °F 31.7 °F 26.6 °F 70% 29.82 in 10.0 mi NW 4.6 mph - N/A   Overcast
2:36 AM 35.6 °F 30.7 °F 26.6 °F 70% 29.82 in 10.0 mi WNW 5.8 mph - N/A   Overcast
2:56 AM 35.6 °F - 26.6 °F 70% 29.81 in 10.0 mi Calm Calm - N/A   Overcast
3:16 AM 35.6 °F 31.7 °F 28.4 °F 75% 29.80 in 10.0 mi ESE 4.6 mph - N/A   Overcast
3:36 AM 35.6 °F - 26.6 °F 70% 29.79 in 10.0 mi Calm Calm - N/A   Overcast
3:56 AM 35.6 °F 32.8 °F 26.6 °F 70% 29.79 in 10.0 mi North 3.5 mph - N/A   Overcast
4:16 AM 35.6 °F 30.7 °F 26.6 °F 70% 29.78 in 10.0 mi NNW 5.8 mph - N/A   Overcast
4:36 AM 35.6 °F 32.8 °F 26.6 °F 70% 29.77 in 10.0 mi North 3.5 mph - N/A   Overcast
4:56 AM 35.6 °F 30.7 °F 24.8 °F 65% 29.77 in 10.0 mi West 5.8 mph - N/A   Overcast
5:16 AM 33.8 °F 28.6 °F 24.8 °F 70% 29.76 in 10.0 mi NW 5.8 mph - N/A   Overcast
5:36 AM 35.6 °F 32.8 °F 26.6 °F 70% 29.76 in 10.0 mi NNW 3.5 mph - N/A   Overcast
5:56 AM 35.6 °F 31.7 °F 26.6 °F 70% 29.75 in 10.0 mi NNW 4.6 mph - N/A   Overcast
6:16 AM 35.6 °F 31.7 °F 26.6 °F 70% 29.75 in 10.0 mi North 4.6 mph - N/A   Overcast
6:36 AM 37.4 °F 28.9 °F 26.6 °F 65% 29.73 in 10.0 mi East 13.8 mph 17.3 mph N/A   Overcast
6:56 AM 35.6 °F 32.8 °F 26.6 °F 70% 29.74 in 10.0 mi East 3.5 mph - N/A   Overcast
7:16 AM 37.4 °F 32.1 °F 26.6 °F 65% 29.73 in 10.0 mi SE 6.9 mph - N/A   Overcast
7:36 AM 37.4 °F 32.8 °F 26.6 °F 65% 29.72 in 10.0 mi ENE 5.8 mph 16.1 mph N/A   Overcast
7:56 AM 39.2 °F 32.0 °F 26.6 °F 61% 29.71 in 10.0 mi East 11.5 mph - N/A   Overcast
8:16 AM 37.4 °F 33.8 °F 26.6 °F 65% 29.71 in 10.0 mi ESE 4.6 mph - N/A   Overcast
8:36 AM 35.6 °F 32.8 °F 26.6 °F 70% 29.71 in 10.0 mi NW 3.5 mph - N/A   Overcast
8:56 AM 35.6 °F 32.8 °F 26.6 °F 70% 29.71 in 10.0 mi SE 3.5 mph - N/A   Overcast
9:16 AM 37.4 °F - 26.6 °F 65% 29.71 in 10.0 mi Calm Calm - N/A   Overcast
9:36 AM 37.4 °F 30.8 °F 26.6 °F 65% 29.70 in 10.0 mi East 9.2 mph - N/A   Overcast
9:56 AM 37.4 °F 29.3 °F 26.6 °F 65% 29.69 in 10.0 mi East 12.7 mph - N/A   Overcast
10:16 AM 37.4 °F 28.5 °F 26.6 °F 65% 29.69 in 10.0 mi East 15.0 mph 19.6 mph N/A   Overcast
10:36 AM 37.4 °F 29.8 °F 26.6 °F 65% 29.68 in 10.0 mi ESE 11.5 mph - N/A   Overcast
10:56 AM 37.4 °F 29.3 °F 26.6 °F 65% 29.68 in 10.0 mi ESE 12.7 mph - N/A   Overcast
11:16 AM 37.4 °F 29.8 °F 26.6 °F 65% 29.68 in 10.0 mi ESE 11.5 mph - N/A   Overcast
11:36 AM 37.4 °F 29.8 °F 26.6 °F 65% 29.66 in 10.0 mi ESE 11.5 mph - N/A   Overcast
11:56 AM 37.4 °F 28.9 °F 26.6 °F 65% 29.65 in 10.0 mi ESE 13.8 mph - N/A   Overcast
12:16 PM 37.4 °F 29.8 °F 26.6 °F 65% 29.65 in 10.0 mi East 11.5 mph - N/A   Overcast
12:36 PM 37.4 °F 30.8 °F 26.6 °F 65% 29.64 in 10.0 mi ESE 9.2 mph 16.1 mph N/A   Overcast
12:56 PM 37.4 °F 29.8 °F 28.4 °F 70% 29.63 in 10.0 mi ESE 11.5 mph - N/A   Overcast
1:16 PM 37.4 °F 29.3 °F 26.6 °F 65% 29.62 in 10.0 mi East 12.7 mph - N/A   Overcast
1:36 PM 37.4 °F 28.2 °F 26.6 °F 65% 29.61 in 10.0 mi East 16.1 mph 21.9 mph N/A   Overcast
1:56 PM 37.4 °F 28.5 °F 26.6 °F 65% 29.60 in 10.0 mi East 15.0 mph - N/A   Overcast
2:16 PM 37.4 °F 27.5 °F 24.8 °F 60% 29.59 in 10.0 mi East 18.4 mph 21.9 mph N/A   Overcast
2:36 PM 35.6 °F 26.2 °F 24.8 °F 65% 29.59 in 10.0 mi East 15.0 mph 20.7 mph N/A   Overcast
2:56 PM 35.6 °F 26.6 °F 24.8 °F 65% 29.58 in 10.0 mi East 13.8 mph - N/A   Overcast
3:16 PM 37.4 °F 28.9 °F 24.8 °F 60% 29.57 in 10.0 mi East 13.8 mph 20.7 mph N/A   Overcast
3:36 PM 37.4 °F 28.2 °F 24.8 °F 60% 29.56 in 10.0 mi East 16.1 mph - N/A   Overcast
3:56 PM 37.4 °F 27.8 °F 24.8 °F 60% 29.55 in 10.0 mi East 17.3 mph 23.0 mph N/A   Overcast
4:16 PM 37.4 °F 28.2 °F 24.8 °F 60% 29.54 in 10.0 mi East 16.1 mph 19.6 mph N/A   Overcast
4:36 PM 37.4 °F 28.2 °F 23.0 °F 56% 29.54 in 10.0 mi East 16.1 mph 19.6 mph N/A   Overcast
4:56 PM 37.4 °F 29.3 °F 23.0 °F 56% 29.54 in 10.0 mi East 12.7 mph - N/A   Overcast
5:16 PM 37.4 °F 28.9 °F 21.2 °F 52% 29.53 in 10.0 mi East 13.8 mph - N/A   Overcast
5:36 PM 37.4 °F 28.5 °F 23.0 °F 56% 29.52 in 10.0 mi East 15.0 mph - N/A   Overcast
5:56 PM 37.4 °F 28.9 °F 23.0 °F 56% 29.52 in 10.0 mi East 13.8 mph 20.7 mph N/A   Overcast
6:16 PM 37.4 °F 28.9 °F 23.0 °F 56% 29.52 in 10.0 mi East 13.8 mph - N/A   Overcast
6:36 PM 35.6 °F 27.1 °F 23.0 °F 60% 29.52 in 10.0 mi East 12.7 mph - N/A   Overcast
6:56 PM 35.6 °F 25.9 °F 23.0 °F 60% 29.51 in 10.0 mi East 16.1 mph 20.7 mph N/A   Overcast
7:16 PM 35.6 °F 26.6 °F 24.8 °F 65% 29.51 in 10.0 mi East 13.8 mph 19.6 mph N/A   Overcast
7:36 PM 35.6 °F 26.6 °F 21.2 °F 56% 29.50 in 10.0 mi East 13.8 mph 21.9 mph N/A   Overcast
7:56 PM 35.6 °F 25.9 °F 21.2 °F 56% 29.50 in 10.0 mi East 16.1 mph - N/A   Overcast
8:16 PM 35.6 °F 24.8 °F 21.2 °F 56% 29.48 in 10.0 mi East 19.6 mph 26.5 mph N/A   Overcast
8:36 PM 35.6 °F 26.2 °F 21.2 °F 56% 29.48 in 10.0 mi East 15.0 mph 23.0 mph N/A   Overcast
8:56 PM 35.6 °F 25.5 °F 21.2 °F 56% 29.48 in 10.0 mi East 17.3 mph 23.0 mph N/A   Overcast
9:16 PM 35.6 °F 25.9 °F 21.2 °F 56% 29.47 in 10.0 mi East 16.1 mph 21.9 mph N/A   Overcast
9:36 PM 35.6 °F 25.5 °F 21.2 °F 56% 29.47 in 10.0 mi East 17.3 mph 21.9 mph N/A   Overcast
9:56 PM 35.6 °F 25.9 °F 21.2 °F 56% 29.47 in 10.0 mi East 16.1 mph - N/A   Overcast
10:16 PM 35.6 °F 26.2 °F 21.2 °F 56% 29.47 in 10.0 mi East 15.0 mph 23.0 mph N/A   Overcast
10:36 PM 35.6 °F 25.2 °F 21.2 °F 56% 29.46 in 10.0 mi East 18.4 mph 26.5 mph N/A   Overcast
10:56 PM 35.6 °F 25.5 °F 21.2 °F 56% 29.47 in 10.0 mi East 17.3 mph 26.5 mph N/A   Overcast
11:16 PM 33.8 °F 23.2 °F 21.2 °F 60% 29.46 in 10.0 mi ESE 17.3 mph 24.2 mph N/A   Overcast
11:36 PM 33.8 °F 22.5 °F 21.2 °F 60% 29.46 in 10.0 mi East 19.6 mph 25.3 mph N/A   Overcast
11:56 PM 33.8 °F 23.2 °F 21.2 °F 60% 29.46 in 10.0 mi East 17.3 mph 23.0 mph N/A   Overcast